Jerez de la Frontera, Spain

6:18 PM CET on November 23, 2017 (GMT +0100)
Jerez

Weather History for LEJR - May, 2014

Change the Weather History Date:

Wednesday, May 14, 2014

  Actual Average Record
Temperature  
Mean Temperature 74 °F -  
Max Temperature 87 °F 80 °F 100 °F (2012)
Min Temperature 62 °F 56 °F 48 °F (2004)
Cooling Degree Days 10    
Growing Degree Days 24 (Base 50)    
Moisture  
Dew Point 52 °F    
Average Humidity 47    
Maximum Humidity 82    
Minimum Humidity 17    
Precipitation  
Precipitation 0.00 in 0.04 in - ()
Sea Level Pressure  
Sea Level Pressure 30.08 in    
Wind  
Wind Speed 6 mph ()    
Max Wind Speed 14 mph    
Max Gust Speed -    
Visibility 12.5 miles    
Events      
Averages and records for this station are not official NWS values.
T = Trace of Precipitation, MM = Missing Value Source: Averaged Metar Reports

Daily Weather History Graph

Daily Weather History Graph

Search for Another Location

Airport or City:

Trip Planner

Search our weather history database for the weather conditions in past years. The results will help you decide how hot, cold, wet, or windy it might be!

Date:

Astronomy

May. 14, 2014 Rise Set
Actual Time 7:17 AM CEST 9:23 PM CEST
Civil Twilight 6:49 AM CEST 9:52 PM CEST
Nautical Twilight 6:13 AM CEST 10:28 PM CEST
Astronomical Twilight 5:36 AM CEST 11:06 PM CEST
Moon 9:15 PM CEST (5/14) 7:04 AM CEST (5/14)
Length of Visible Light 15h 03m
Length of Day
14h 06m
Full, 100% of the Moon is Illuminated
May 14
Full
May 14
Full
May 21
Last Quarter
May 28
New
Jun 5
First Quarter

Hourly Weather History & Observations

Time (CEST) Temp. Heat Index Dew Point Humidity Pressure Visibility Wind Dir Wind Speed Gust Speed Precip Events Conditions
12:00 AM 69 °F - 61 °F 68% 30.08 in - SE 8.1 mph - -  
1:00 AM 68 °F - 60 °F 68% 30.09 in - SE 9.2 mph - -  
2:00 AM 68 °F - 58 °F 63% 30.09 in 9 mi SE 6.9 mph - -  
3:00 AM 64 °F - 58 °F 74% 30.08 in - East 2.3 mph - -  
4:00 AM 63 °F - 57 °F 74% 30.08 in - East 3.5 mph - -  
4:30 AM 62.6 °F - 57.2 °F 82% 30.06 in - Variable 1.2 mph - N/A   Clear
5:00 AM 62 °F - 58 °F 81% 30.09 in - NE 3.5 mph - -  
5:00 AM 62.6 °F - 57.2 °F 82% 30.06 in - Variable 2.3 mph - N/A   Clear
5:30 AM 62.6 °F - 57.2 °F 82% 30.06 in - ENE 3.5 mph - N/A   Clear
6:00 AM 63 °F - 58 °F 80% 30.09 in - East 6.9 mph - -  
6:00 AM 62.6 °F - 57.2 °F 82% 30.06 in - East 4.6 mph - N/A   Clear
6:30 AM 62.6 °F - 57.2 °F 82% 30.06 in - Variable 1.2 mph - N/A   Clear
7:00 AM 63 °F - 57 °F 76% 30.09 in - East 1.2 mph - -  
7:00 AM 64.4 °F - 57.2 °F 77% 30.06 in - Variable 2.3 mph - N/A   Clear
7:30 AM 64.4 °F - 57.2 °F 77% 30.09 in - ENE 3.5 mph - N/A   Clear
8:00 AM 66 °F - 58 °F 69% 30.10 in 25 mi ENE 6.9 mph - -  
8:00 AM 66.2 °F - 57.2 °F 73% 30.09 in - ENE 6.9 mph - N/A   Clear
8:30 AM 68.0 °F - 59.0 °F 73% 30.09 in - East 5.8 mph - N/A   Clear
9:00 AM 71 °F - 58 °F 53% 30.11 in - ESE 6.9 mph - -  
9:00 AM 69.8 °F - 57.2 °F 64% 30.09 in - ESE 4.6 mph - N/A   Clear
9:30 AM 69.8 °F - 59.0 °F 68% 30.09 in - South 4.6 mph - N/A   Clear
10:00 AM 76 °F - 56 °F 40% 30.11 in - SE 1.2 mph - -  
10:00 AM 73.4 °F - 57.2 °F 57% 30.09 in - Variable 1.2 mph - N/A   Clear
10:30 AM 77.0 °F - 55.4 °F 47% 30.09 in - East 8.1 mph - N/A   Clear
11:00 AM 80 °F - 55 °F 32% 30.10 in 25 mi ESE 5.8 mph - -  
11:00 AM 78.8 °F - 55.4 °F 44% 30.09 in - SE 8.1 mph - N/A   Clear
11:30 AM 78.8 °F - 55.4 °F 44% 30.09 in - Variable 2.3 mph - N/A   Clear
12:00 PM 83 °F - 54 °F 27% 30.11 in - South 2.3 mph - -  
12:00 PM 78.8 °F - 55.4 °F 44% 30.09 in - SSW 3.5 mph - N/A   Clear
12:30 PM 82.4 °F 81.4 °F 53.6 °F 37% 30.09 in - Variable 2.3 mph - N/A   Clear
1:00 PM 86 °F - 54 °F 24% 30.11 in - SSE 3.5 mph - -  
1:00 PM 82.4 °F 81.4 °F 53.6 °F 37% 30.09 in - Variable 3.5 mph - N/A   Clear
1:30 PM 84.2 °F - 51.8 °F 33% 30.09 in - SSE 10.4 mph - N/A   Clear
2:00 PM 86 °F - 51 °F 20% 30.11 in 28 mi SSE 11.5 mph - -  
2:00 PM 84.2 °F - 50.0 °F 30% 30.09 in - SSE 10.4 mph - N/A   Clear
2:30 PM 84.2 °F - 48.2 °F 29% 30.09 in - East 10.4 mph - N/A   Clear
3:00 PM 87 °F - 50 °F 18% 30.09 in - East 13.8 mph - -  
3:00 PM 86.0 °F - 48.2 °F 27% 30.09 in - East 12.7 mph - N/A   Clear
3:30 PM 86.0 °F - 50.0 °F 29% 30.09 in - ESE 11.5 mph - N/A   Clear
4:00 PM 87 °F - 51 °F 19% 30.09 in - SE 12.7 mph - -  
4:00 PM 84.2 °F - 50.0 °F 30% 30.06 in - SE 11.5 mph - N/A   Clear
5:00 PM 85 °F - 47 °F 17% 30.07 in 28 mi SSE 13.8 mph - -   Clear
5:30 PM 82.4 °F - 46.4 °F 28% 30.06 in - SSE 12.7 mph - N/A   Clear
6:00 PM 84 °F - 46 °F 17% 30.07 in - SSE 13.8 mph - -  
6:00 PM 82.4 °F - 46.4 °F 28% 30.06 in - SSE 12.7 mph - N/A   Clear
6:30 PM 80.6 °F - 46.4 °F 30% 30.06 in - SSE 13.8 mph - N/A   Clear
7:00 PM 82 °F - 47 °F 19% 30.06 in - SSE 11.5 mph - -  
7:00 PM 80.6 °F - 46.4 °F 30% 30.06 in - SSE 10.4 mph - N/A   Clear
7:30 PM 78.8 °F - 46.4 °F 32% 30.04 in - SSE 11.5 mph - N/A   Clear
8:00 PM 78 °F - 48 °F 24% 30.05 in 31 mi SE 11.5 mph - -   Clear
8:00 PM 77.0 °F - 50.0 °F 39% 30.04 in - SSE 11.5 mph - N/A   Clear
8:30 PM 73.4 °F - 44.6 °F 36% 30.04 in - SSE 13.8 mph - N/A   Clear
9:00 PM 72 °F - 44 °F 26% 30.06 in - SE 12.7 mph - -  
9:00 PM 71.6 °F - 44.6 °F 38% 30.06 in - SE 12.7 mph - N/A   Clear
9:30 PM 69.8 °F - 42.8 °F 38% 30.06 in - SE 10.4 mph - N/A   Clear
10:00 PM 68 °F - 42 °F 28% 30.06 in - ESE 5.8 mph - -  
10:00 PM 68.0 °F - 42.8 °F 40% 30.06 in - SE 6.9 mph - N/A   Clear
10:30 PM 66.2 °F - 42.8 °F 43% 30.06 in - Variable 2.3 mph - N/A   Clear
11:00 PM 65 °F - 46 °F 38% 30.07 in 16 mi ENE 2.3 mph - -  
11:00 PM 66.2 °F - 44.6 °F 46% 30.06 in - Variable 1.2 mph - N/A   Clear